Theta_e
317 317 316 316 315 314 315 315 314 314 314 313 312 312 314 315 316 316 317 317 317 318 319 319 319 319 319 320 323 324 325 326 327 327 328 327 327 326 325 325 325 325 326 328 328 327 327 328 326 324 324 323 323 322 320 319 317 315 313 311 310 308 307
315 315 314 314 313 313 314 314 312 313 313 312 312 314 315 315 316 317 317 317 317 317 318 318 318 318 318 319 319 319 321 321 323 325 327 327 326 325 325 325 326 326 325 327 327 325 326 327 325 324 323 322 322 321 320 319 317 315 312 311 309 307 306
314 313 313 313 312 312 313 312 311 312 312 311 313 315 315 315 316 316 317 317 317 317 317 317 316 316 317 318 317 317 318 317 318 321 324 326 326 325 325 325 326 325 326 328 327 325 325 325 325 325 323 321 321 320 318 317 316 313 311 310 309 307 305
313 313 313 312 312 312 312 311 311 311 311 312 314 315 315 315 316 316 316 317 316 316 316 316 317 317 319 319 319 319 318 317 319 321 322 323 325 325 325 324 324 324 325 327 326 325 325 324 326 326 323 321 321 318 317 316 314 313 311 311 309 307 304
314 313 312 312 312 312 312 311 312 312 312 313 315 316 315 315 316 316 316 316 315 315 315 316 316 317 319 319 319 319 319 319 320 321 321 322 323 324 324 323 323 323 322 324 325 324 324 325 326 325 323 321 320 318 317 316 314 312 312 311 310 307 305
312 311 311 311 311 311 311 311 312 312 313 314 315 315 315 316 316 315 315 315 314 315 315 314 315 316 317 318 318 319 319 319 320 321 321 321 322 323 323 323 323 322 320 322 323 323 323 324 324 325 324 322 320 319 317 316 315 313 312 311 311 309 306
309 309 310 310 310 310 310 311 312 312 313 314 314 315 315 315 315 314 314 314 313 314 314 313 314 315 315 317 318 319 320 319 319 320 320 320 321 322 323 323 322 320 320 321 322 323 322 323 324 325 324 323 321 319 316 316 316 314 312 311 311 310 307
309 309 310 310 310 311 311 311 312 312 313 313 313 314 314 314 314 313 314 314 313 314 314 313 313 313 314 315 316 317 319 319 318 319 320 319 320 321 322 321 320 319 319 320 321 323 323 323 324 324 324 323 321 318 317 317 317 315 312 311 311 310 308
309 310 311 311 310 311 311 311 312 312 312 312 312 313 313 313 314 313 313 313 313 313 313 312 313 312 313 314 314 316 317 318 317 318 320 320 319 321 321 320 319 317 318 319 319 321 323 323 323 323 324 322 319 318 318 319 318 315 312 311 310 310 309
310 310 311 311 310 311 311 310 311 311 311 311 311 312 312 312 313 312 313 313 313 314 313 312 311 310 311 312 313 315 316 317 317 317 319 319 319 320 319 318 317 316 316 317 318 321 322 322 322 323 323 321 319 319 320 320 320 315 311 310 311 311 310
310 310 311 311 310 310 311 310 310 310 311 310 310 311 311 311 312 312 312 312 313 313 313 310 308 309 309 310 311 313 314 316 316 316 318 318 319 319 316 315 314 315 316 317 318 320 321 322 322 322 323 322 321 320 320 321 320 314 312 311 311 312 310
311 311 311 311 311 311 311 310 310 310 310 310 310 310 310 311 311 311 311 312 312 313 311 309 308 308 308 308 310 312 313 314 315 316 316 318 319 318 315 314 314 315 317 318 319 320 321 321 322 321 321 322 323 322 321 320 319 315 312 312 312 311 310
311 311 311 310 311 310 310 310 310 309 309 309 309 310 309 310 311 311 311 312 312 312 310 308 307 307 307 307 308 310 311 312 314 315 315 317 318 317 316 316 317 316 317 317 319 320 320 320 321 321 321 322 322 322 321 319 318 316 313 312 312 312 310
310 311 310 309 310 310 309 310 309 309 309 309 309 309 309 309 310 311 312 312 311 310 308 307 307 307 307 307 308 309 310 311 313 314 314 316 318 318 317 317 317 316 316 317 317 318 318 318 320 320 321 321 321 321 321 319 318 317 316 313 312 312 310
309 310 309 308 309 309 309 309 309 308 309 308 308 309 309 309 310 310 312 312 310 308 307 306 306 306 306 307 307 308 309 310 313 313 314 316 316 315 315 316 316 315 315 316 316 317 318 318 319 320 320 321 321 321 321 319 318 318 317 314 312 312 311
309 309 309 308 308 308 308 309 308 308 309 308 309 309 309 310 310 310 311 311 309 307 306 305 305 304 305 306 306 307 309 310 312 312 312 315 314 313 315 315 314 314 315 315 315 316 317 317 318 319 320 321 320 320 321 320 318 318 317 314 312 312 311
309 308 308 308 308 308 308 309 308 308 309 309 309 310 309 310 310 309 311 310 308 306 305 304 304 304 305 305 305 307 308 309 312 311 311 314 315 314 315 314 313 314 315 315 315 315 316 317 317 318 320 320 320 320 321 320 318 318 317 314 313 312 312
308 308 308 308 308 308 308 308 308 308 308 309 309 310 309 309 310 309 310 310 308 306 304 303 303 304 306 306 305 307 308 308 311 311 309 312 315 314 313 313 313 314 316 316 315 315 315 316 317 318 319 319 320 320 321 320 319 318 316 315 314 313 313
308 307 307 308 307 308 308 308 308 308 308 308 308 309 308 308 308 308 310 309 307 305 303 303 303 304 306 306 305 307 308 309 312 312 309 309 312 313 313 313 313 314 315 315 314 313 314 315 316 318 318 318 319 320 320 320 319 318 316 315 314 314 313
307 307 308 307 307 308 308 307 307 307 307 307 308 308 307 307 308 308 309 309 307 305 303 303 303 303 306 306 304 306 308 309 312 312 310 308 310 313 314 314 313 313 313 313 312 312 312 312 314 317 319 318 318 320 320 320 319 318 318 316 315 314 314
307 307 307 307 307 307 307 306 306 306 306 307 307 307 307 307 308 307 308 308 307 305 304 302 302 302 304 304 304 306 309 310 311 311 311 310 308 311 314 314 314 313 312 312 311 311 311 309 309 313 317 318 318 319 319 320 320 319 318 317 316 315 314
306 307 306 307 307 306 306 305 305 305 305 305 306 306 306 307 307 307 307 308 307 305 303 302 301 301 301 301 303 307 309 310 311 311 311 310 308 308 312 313 313 314 313 312 312 311 311 309 306 308 313 316 317 319 319 319 320 320 319 317 316 315 313
306 306 306 306 306 305 305 304 304 304 305 305 305 305 305 306 306 306 306 307 306 304 302 301 301 302 301 300 302 307 309 310 311 310 310 310 309 308 310 311 313 313 312 311 311 312 313 311 306 305 309 313 316 318 319 319 319 319 319 317 315 314 313
306 306 306 305 305 304 304 303 303 303 304 304 304 304 305 305 306 306 306 307 306 304 302 301 301 302 303 301 302 305 308 309 310 310 309 310 310 310 310 311 312 312 311 310 310 310 312 313 309 305 306 310 315 317 318 318 318 318 319 318 314 313 314
306 306 305 305 304 304 303 303 303 303 303 303 303 304 304 305 306 306 306 306 305 304 302 301 300 301 303 302 301 304 306 308 309 310 309 309 310 311 311 312 311 312 312 309 307 308 310 312 312 308 305 307 312 315 315 317 318 317 319 319 315 313 315
306 305 304 304 303 303 302 302 302 302 302 303 303 303 304 305 305 305 305 305 305 304 302 300 300 301 303 303 302 303 305 307 308 309 309 309 310 311 312 312 312 312 311 306 303 305 309 311 312 313 311 309 311 313 315 317 318 318 319 320 317 316 316
305 305 304 303 303 302 302 302 301 302 302 302 302 303 303 304 305 305 305 305 304 304 302 300 299 300 302 303 302 302 304 306 307 308 309 309 310 311 311 310 311 310 307 304 301 303 308 310 311 314 316 316 316 316 316 317 319 318 319 319 317 317 315
305 304 303 303 302 302 302 301 301 302 301 301 302 303 303 303 304 304 304 304 303 303 301 300 299 298 300 302 302 301 302 305 305 307 308 308 309 311 311 310 309 306 303 303 302 303 306 309 310 313 316 318 318 318 317 317 318 318 318 318 317 316 314
304 304 303 303 302 302 301 301 301 301 301 302 302 302 302 303 303 303 304 303 303 302 301 300 299 298 298 300 301 300 301 303 305 306 308 307 307 309 311 310 309 306 302 302 303 303 306 309 310 312 315 316 317 316 316 317 318 317 317 317 317 316 315
304 303 303 303 302 302 301 301 301 301 301 302 302 302 302 302 303 303 303 302 302 301 300 300 299 297 296 297 299 298 299 302 304 305 307 307 306 307 309 310 309 307 303 301 302 303 305 308 310 310 311 314 316 316 316 317 318 318 317 317 316 315 315
304 303 303 303 302 302 301 301 301 301 301 302 302 301 301 302 302 302 302 301 301 300 300 299 298 297 296 295 297 297 297 299 302 304 306 306 304 305 308 308 307 307 304 301 302 303 303 306 309 307 307 309 312 313 315 316 317 318 318 317 317 316 315
304 303 303 303 302 302 301 301 301 301 301 301 301 301 301 301 301 300 300 300 300 300 299 298 297 297 296 295 296 297 297 298 301 303 305 305 303 303 306 306 306 306 304 301 302 302 301 304 306 304 304 307 308 309 312 315 317 318 317 317 317 317 315
304 303 303 303 302 302 301 301 300 300 301 301 301 301 301 301 300 300 300 300 299 299 299 298 297 297 296 295 295 296 297 297 299 302 304 304 303 303 304 305 305 304 303 301 302 301 300 300 300 299 299 303 305 306 309 314 315 316 317 317 316 315 314
303 304 303 302 302 302 301 300 300 300 300 300 300 300 300 300 300 299 299 299 299 298 298 298 297 296 295 295 295 295 296 297 298 301 304 304 303 302 303 304 304 303 302 302 302 301 300 299 298 297 297 298 301 305 308 311 312 314 316 316 316 316 315
303 303 303 302 302 301 301 300 299 299 299 299 300 299 299 299 299 299 299 299 298 298 298 296 295 294 294 295 295 295 296 297 299 301 303 303 302 301 302 304 304 302 302 301 302 302 301 298 297 298 299 298 299 303 306 308 309 311 312 314 314 316 316
302 302 302 301 301 301 300 299 299 299 299 299 299 299 298 299 298 298 298 298 297 297 297 295 294 293 293 293 295 296 297 298 299 300 301 302 301 300 302 304 304 303 303 302 303 304 302 299 299 301 303 303 303 304 305 306 308 308 309 310 312 313 315
302 302 302 301 300 300 300 299 298 298 298 298 298 298 297 297 297 298 298 297 296 296 296 294 293 292 292 292 293 295 297 299 299 299 299 300 300 300 301 303 304 305 305 304 305 306 304 302 301 303 305 306 305 305 306 307 308 308 308 309 310 311 312
Wind_Speed
20 19 20 20 20 22 21 21 22 22 21 22 22 22 22 21 22 23 23 25 26 26 26 26 27 29 29 30 31 29 28 29 26 23 23 23 21 20 19 17 17 17 12 14 10 3 3 5 6 5 8 11 11 12 11 11 12 12 12 12 11 10 9
20 20 20 20 21 22 21 21 23 22 21 22 22 22 21 22 23 24 23 24 26 27 28 28 28 30 29 30 32 32 29 30 29 26 25 25 24 23 22 17 14 15 12 10 10 6 3 4 6 5 6 8 9 10 9 11 14 14 13 12 11 10 9
19 20 21 20 22 22 21 22 23 23 23 22 22 21 22 23 24 25 26 25 26 26 27 28 29 30 30 30 31 30 29 30 29 27 25 25 27 28 24 16 10 12 9 3 8 9 4 0 3 7 7 7 6 6 6 11 16 15 12 11 10 10 10
20 20 21 21 22 22 22 23 23 23 23 23 23 22 23 25 24 26 27 24 25 26 26 28 30 29 29 31 31 29 29 30 28 26 26 24 24 24 22 17 13 12 11 4 7 12 6 3 4 6 8 9 8 7 6 11 16 14 11 11 12 12 12
20 20 20 20 21 22 21 22 22 23 23 23 24 23 24 26 25 26 27 24 25 26 26 28 29 30 29 29 30 29 30 30 28 26 25 25 24 23 21 20 18 15 14 12 7 16 12 9 8 4 8 11 8 7 9 10 14 13 12 13 13 12 12
19 20 20 19 21 21 21 22 22 23 23 23 25 25 24 26 27 28 27 24 25 26 27 29 29 30 31 30 29 29 29 29 27 26 26 26 25 23 20 18 17 12 14 17 7 16 14 12 12 6 9 12 8 8 11 11 12 13 13 13 12 12 12
19 20 19 19 21 21 21 22 22 23 24 23 25 25 25 26 27 28 27 24 26 26 27 29 29 30 32 31 30 30 29 29 27 26 26 27 26 23 18 15 12 7 8 12 6 11 14 16 15 9 9 9 9 10 10 12 13 12 13 13 12 13 14
19 19 20 20 21 22 22 22 22 23 24 24 25 25 25 26 26 28 26 23 26 27 27 30 30 31 32 31 31 31 29 29 29 28 26 27 26 22 16 12 9 6 6 10 10 6 10 14 17 18 15 8 6 8 7 10 13 13 16 16 13 15 16
20 20 21 21 22 22 22 23 23 23 24 24 25 25 26 26 26 28 26 23 26 27 26 29 31 32 33 32 32 32 29 29 30 28 26 26 25 17 12 10 8 7 8 8 12 8 4 9 15 21 20 12 8 7 5 7 8 10 18 19 14 16 15
21 21 22 22 23 23 23 23 23 24 25 24 24 25 26 26 25 28 27 23 26 27 25 29 32 33 33 32 33 32 30 30 31 28 25 25 23 14 10 9 8 7 8 8 10 9 4 6 14 19 20 16 12 9 6 6 4 7 15 18 16 16 15
21 22 22 22 23 24 23 24 24 25 25 24 25 25 26 26 25 27 26 24 26 25 25 32 36 36 34 34 34 32 30 30 31 31 27 25 22 14 10 6 5 8 10 9 9 9 7 4 10 18 20 15 10 7 7 5 4 9 15 16 15 17 18
21 22 23 23 24 24 24 24 24 25 25 25 26 26 26 26 25 27 26 24 25 25 29 37 39 37 36 35 34 32 31 30 30 33 29 24 21 14 9 5 5 8 11 11 10 8 8 7 5 12 14 12 7 7 9 7 4 9 16 16 15 18 19
22 22 24 24 24 24 24 24 24 25 25 25 26 26 27 27 26 27 26 23 25 27 34 39 38 37 36 35 34 33 32 31 29 31 30 25 19 10 4 6 7 8 10 11 13 11 9 7 5 7 9 11 8 7 9 8 6 8 13 17 17 18 17
23 23 24 24 23 24 24 24 24 25 25 26 26 26 27 27 27 27 25 25 27 31 37 39 38 39 36 34 35 33 32 32 29 30 32 25 14 5 0 8 10 9 10 12 14 15 13 9 7 7 7 10 10 8 10 10 10 9 10 16 19 17 16
23 22 23 24 23 24 25 24 25 25 25 26 26 26 27 27 27 27 24 25 28 33 38 38 39 43 38 33 34 33 33 33 29 31 34 24 10 3 3 10 14 14 13 14 16 17 16 11 9 9 6 9 9 8 14 15 14 12 10 15 19 17 16
23 22 23 24 24 25 25 24 25 25 25 26 25 26 26 26 27 27 23 24 28 33 38 40 44 48 44 38 35 32 34 34 29 31 34 22 7 5 10 15 18 18 17 18 19 20 18 13 11 12 7 10 10 8 14 19 19 16 13 15 18 17 15
22 23 23 24 24 25 25 25 25 25 25 26 26 25 26 26 27 27 24 24 27 32 37 45 52 53 50 44 37 33 34 33 29 31 35 26 13 12 16 19 20 18 18 21 22 21 20 15 13 12 6 8 13 11 13 19 21 19 17 16 16 17 13
22 23 24 24 25 25 25 25 26 25 25 26 26 25 26 27 27 26 24 23 27 34 39 48 55 55 51 44 36 32 32 31 29 29 33 31 24 22 21 22 22 20 21 22 22 22 21 19 18 12 5 1 8 9 10 18 19 19 20 18 15 16 12
22 23 24 24 25 25 25 25 25 25 25 25 25 25 25 26 25 25 23 22 28 40 44 48 54 54 50 43 35 32 30 29 29 28 28 29 28 25 21 22 24 22 21 20 19 22 22 22 21 11 4 8 8 4 5 15 19 17 19 19 17 17 12
22 23 23 23 24 24 24 25 25 24 25 25 24 24 25 25 25 25 23 21 30 43 46 47 53 54 50 42 34 30 29 29 28 26 23 21 22 24 21 21 24 22 19 19 18 21 21 21 21 16 13 13 8 6 6 9 17 17 16 17 18 15 11
21 22 23 23 24 24 24 25 25 24 25 24 24 25 25 26 27 27 25 22 30 41 44 47 53 53 48 41 33 30 30 29 27 24 22 18 17 23 25 23 23 21 19 19 19 20 21 20 19 19 20 15 8 10 10 4 10 15 15 14 14 13 10
21 22 23 23 24 25 24 25 25 24 24 24 24 24 25 26 26 27 25 23 29 39 44 47 51 50 45 39 32 29 29 30 28 25 24 19 15 20 25 24 22 20 18 19 20 19 20 20 18 17 18 16 12 10 8 4 4 10 15 13 11 12 11
21 22 23 23 24 24 24 25 25 24 24 25 24 24 24 24 24 25 25 24 28 37 43 46 50 48 42 36 30 27 27 29 30 29 26 22 18 18 22 24 22 20 18 19 20 19 19 20 18 14 14 15 13 9 9 7 3 4 9 10 13 12 10
21 22 23 23 23 24 24 24 24 23 25 26 27 26 26 25 25 25 26 23 26 36 42 44 49 48 41 34 29 27 26 27 30 32 29 25 22 19 21 23 23 21 19 20 21 19 20 21 18 13 11 11 12 10 9 6 1 0 5 2 13 13 10
20 21 22 23 23 23 23 24 24 24 25 26 27 28 26 26 26 25 25 23 24 32 39 43 48 48 40 34 30 27 26 26 29 32 31 27 23 22 24 25 24 22 20 20 20 17 18 19 17 13 10 9 10 10 9 9 8 10 14 5 9 9 10
20 21 22 22 22 23 24 24 24 24 25 25 26 26 25 25 25 25 26 23 22 28 37 42 47 47 40 34 31 28 26 27 28 31 32 29 24 24 27 27 26 25 22 22 22 17 16 18 18 14 10 9 10 9 8 10 11 14 16 13 11 10 10
19 20 21 22 22 23 24 24 24 24 24 25 26 26 25 26 26 25 26 25 22 26 33 41 46 46 41 35 32 30 29 29 28 29 31 30 26 26 27 26 26 25 22 22 24 20 16 19 20 15 11 10 9 7 7 9 11 13 16 18 19 20 18
19 19 20 22 23 24 24 25 25 24 24 25 26 26 26 26 25 25 25 25 24 24 30 38 44 45 41 37 34 32 31 31 30 29 29 30 28 25 25 25 23 23 21 22 24 21 18 20 21 15 11 10 9 8 8 10 12 12 13 16 18 20 21
18 18 19 21 22 24 25 26 25 24 24 25 25 26 25 25 24 25 26 27 26 25 27 36 43 44 42 40 37 34 33 33 32 30 28 29 28 24 22 23 22 20 20 21 22 21 18 21 23 19 12 9 10 10 9 9 11 11 11 11 13 15 16
17 18 18 20 21 23 24 25 24 24 24 24 25 24 24 25 25 25 26 27 27 26 26 33 41 42 41 42 41 36 33 34 34 32 28 27 28 23 19 20 21 19 18 20 21 19 18 21 24 24 20 12 10 11 11 8 6 7 8 9 10 11 12
16 17 18 19 20 22 23 23 24 24 24 24 24 24 23 24 25 25 25 26 26 26 26 31 39 41 40 42 42 38 35 35 35 33 29 27 28 25 19 17 20 18 16 17 18 18 18 20 22 24 24 19 14 13 12 8 5 5 5 5 7 8 9
15 17 18 18 19 20 21 22 23 24 23 23 23 22 22 22 23 23 24 24 26 26 27 30 37 40 39 41 42 40 38 38 36 33 27 26 30 30 23 20 20 17 14 15 16 16 17 18 19 21 21 19 17 16 13 8 6 6 4 3 5 6 7
15 16 18 18 18 20 20 22 23 23 23 22 22 22 23 22 21 22 23 24 25 26 29 32 37 38 38 40 42 40 38 38 38 33 25 24 29 32 27 24 22 17 13 14 15 16 17 17 17 17 17 16 16 17 15 10 6 6 6 7 7 7 7
15 15 16 18 18 19 20 21 22 23 22 22 22 23 23 22 21 22 23 24 25 26 28 31 36 38 38 39 41 40 37 36 36 32 25 22 26 30 29 27 24 18 14 14 15 17 18 18 15 14 14 12 11 13 12 10 7 5 6 8 7 6 6
15 14 16 18 18 19 20 21 21 22 22 22 22 23 23 22 21 22 23 23 25 26 26 28 32 37 37 37 38 38 35 33 32 30 25 22 24 27 28 27 25 19 13 12 15 17 18 18 15 12 12 11 8 9 9 8 9 9 4 2 3 4 6
14 14 15 17 18 18 19 20 21 21 22 22 22 23 23 22 20 21 23 23 24 27 27 27 30 34 36 36 36 36 33 30 30 29 24 22 24 26 25 25 25 20 13 11 13 16 17 17 14 13 14 13 11 9 7 6 7 9 8 7 5 5 7
12 13 14 16 17 17 18 19 20 21 21 21 21 21 22 21 20 21 22 23 24 27 28 28 30 33 35 34 34 35 32 28 28 29 26 23 24 24 22 23 23 20 16 15 15 16 17 16 14 13 15 17 15 11 9 8 5 4 6 9 7 2 2
Wind_Direction
360 0 360 357 359 354 351 357 355 352 353 353 353 353 350 350 352 351 350 349 348 346 345 343 342 340 339 338 337 335 331 330 322 302 288 287 287 279 275 278 287 289 256 207 197 181 167 156 151 169 171 168 175 180 174 159 146 138 133 132 130 124 117
1 0 358 356 357 354 353 356 354 351 352 354 354 354 352 350 352 355 354 351 349 348 348 347 346 345 342 341 342 342 338 332 327 316 300 287 282 279 277 276 283 296 281 214 195 221 238 160 152 163 165 166 184 193 181 164 153 141 136 139 137 138 130
2 0 357 358 358 355 355 354 352 352 353 353 351 352 354 351 354 358 355 352 352 352 353 351 349 347 345 345 345 344 341 336 330 323 315 302 289 279 273 273 286 299 297 181 176 208 225 281 173 164 166 168 168 187 176 149 144 138 139 143 137 139 135
2 0 357 359 358 355 355 353 351 353 354 353 349 351 356 353 355 359 353 351 355 357 357 355 352 349 346 346 346 343 340 339 333 325 322 319 306 289 279 279 283 287 293 295 194 201 192 191 202 158 164 177 159 161 158 136 138 142 148 150 146 142 135
2 1 358 359 357 353 352 350 351 354 354 352 349 351 355 353 355 357 351 353 1 2 1 357 353 352 349 346 346 343 339 337 335 329 323 322 316 301 291 285 280 277 292 306 226 197 198 196 196 160 159 172 154 155 166 146 141 149 157 154 148 144 143
2 1 358 357 354 351 350 350 353 355 354 353 350 349 353 355 357 355 351 358 5 3 2 359 355 355 352 347 344 342 340 338 336 334 329 325 319 306 293 282 277 271 288 307 261 196 199 194 193 173 157 167 155 159 171 159 154 159 161 155 149 153 156
4 2 359 357 353 352 353 354 356 356 355 352 348 348 352 354 355 353 352 1 6 2 2 1 358 357 354 350 346 342 341 342 339 336 333 331 325 312 296 278 274 273 294 325 318 210 199 186 184 163 149 171 161 152 160 167 177 174 158 158 164 162 157
6 4 1 359 357 356 358 357 357 357 355 351 349 349 351 351 352 351 352 2 7 3 2 2 359 358 356 353 350 345 344 347 344 338 333 334 329 315 299 282 275 286 307 357 6 281 215 184 177 165 157 169 154 143 157 177 191 186 161 160 169 161 152
8 5 2 1 0 359 359 358 357 356 354 351 351 351 350 350 352 352 352 1 8 6 4 3 359 357 356 354 351 347 345 345 344 338 332 334 332 314 299 300 302 306 304 340 8 348 247 190 183 175 168 168 157 148 171 183 189 179 162 159 160 157 153
8 6 3 1 0 359 359 358 356 354 352 352 352 351 350 351 353 354 353 360 9 10 9 6 2 358 356 354 351 347 343 341 341 338 330 331 330 311 294 308 317 331 329 334 357 1 330 217 195 186 180 176 166 157 168 185 172 151 158 160 153 150 155
6 4 2 0 359 359 357 356 355 353 351 352 351 350 351 351 354 355 353 0 10 11 9 5 2 1 357 354 351 347 343 340 340 339 333 331 330 307 288 312 336 338 342 350 357 2 355 305 209 195 188 181 176 175 169 165 142 140 151 156 151 149 156
3 2 1 359 357 357 355 353 353 352 351 352 352 351 352 351 354 354 353 4 14 10 6 4 1 360 357 354 351 348 345 342 340 341 338 333 328 310 297 332 4 349 349 8 15 9 359 340 241 207 194 184 200 211 175 146 117 143 150 149 150 153 154
1 0 359 358 356 356 353 351 351 351 352 353 352 353 354 352 354 353 355 11 19 10 7 6 3 359 354 351 349 346 345 344 340 340 339 335 329 311 320 8 11 2 3 24 31 24 8 349 290 247 214 197 218 224 173 139 114 139 153 151 149 152 153
0 359 358 357 356 354 353 353 352 352 354 355 355 356 355 354 354 354 2 20 22 15 12 9 5 0 354 349 346 344 345 344 340 340 339 337 327 274 166 34 27 23 25 34 31 20 10 355 317 284 235 212 229 217 165 139 130 137 149 151 148 150 155
359 358 357 357 356 354 354 355 354 355 356 357 358 359 356 357 357 356 10 27 24 19 15 9 4 2 357 350 345 344 349 348 342 344 344 339 329 289 33 40 40 38 37 36 25 14 9 360 342 330 283 240 241 201 162 151 146 141 139 146 147 149 159
358 358 359 357 357 357 356 357 357 357 359 359 360 0 359 359 359 1 17 33 27 20 16 9 5 3 360 355 351 350 356 354 347 350 353 353 1 45 44 43 41 38 35 31 22 13 12 6 353 350 317 238 222 191 167 158 148 142 139 142 144 148 163
359 360 0 358 359 359 359 360 359 359 1 1 2 2 1 1 1 6 21 36 30 20 16 10 6 4 2 0 359 358 360 358 353 355 1 6 24 48 47 44 41 38 35 30 21 15 18 11 356 357 339 213 194 185 169 155 148 144 140 140 146 152 168
1 3 2 1 2 1 1 2 1 2 3 4 4 3 3 4 3 7 23 37 29 19 16 10 4 3 3 2 2 2 2 359 355 359 6 13 26 36 39 41 40 38 37 32 24 20 22 15 5 0 343 156 160 176 160 144 145 144 140 142 145 149 169
5 6 4 4 4 3 4 4 3 5 5 5 5 5 6 7 5 7 22 36 27 19 16 9 2 2 3 3 4 5 3 359 358 4 11 16 25 29 31 37 37 36 36 33 28 23 23 23 23 23 14 38 74 134 135 136 142 137 136 142 140 144 169
7 7 6 6 6 5 6 6 5 6 7 6 6 6 5 7 8 11 22 35 25 17 15 8 1 2 2 2 6 6 3 359 2 10 14 14 19 22 26 32 33 36 37 34 31 25 21 26 32 36 35 38 71 82 51 119 141 135 136 139 136 145 165
9 9 7 7 7 7 9 9 7 8 8 7 7 7 5 7 13 15 18 28 21 14 13 9 3 2 2 2 7 11 8 4 5 13 18 18 19 19 21 25 26 31 36 32 30 23 17 20 23 31 39 43 62 61 37 55 132 133 137 134 136 149 150
11 10 10 9 9 10 11 10 9 9 9 8 9 10 9 11 16 14 14 21 18 12 13 10 3 3 4 3 7 14 12 9 10 15 19 26 28 18 18 20 19 23 30 28 22 19 17 16 14 24 40 41 41 60 77 59 69 127 140 137 139 144 138
12 12 12 11 11 12 12 11 11 10 8 8 8 10 13 16 17 15 16 20 17 13 14 9 2 3 7 8 11 18 14 10 14 18 20 27 31 20 15 18 20 23 27 24 18 16 18 17 16 24 37 38 39 66 92 68 29 152 146 144 146 142 147
14 13 13 13 13 13 13 12 12 11 10 10 10 9 12 19 21 18 18 20 18 15 13 7 2 4 9 12 17 21 14 8 14 19 20 24 28 23 16 19 24 27 24 21 20 19 17 13 14 26 35 35 42 60 67 54 95 96 10 135 157 155 160
15 15 16 15 15 14 13 13 12 12 12 13 13 11 11 18 22 19 18 20 18 15 11 4 2 6 11 16 21 22 15 10 14 18 19 22 26 25 22 20 23 24 20 20 24 21 14 10 9 22 39 39 37 47 45 37 49 36 14 24 152 151 145
17 17 17 16 15 16 15 15 14 13 13 13 12 10 11 18 22 19 18 21 18 13 8 2 2 8 13 19 25 24 16 13 15 17 18 22 25 27 25 20 19 21 21 23 25 19 12 12 10 13 34 47 42 38 32 33 47 46 38 51 72 67 99
19 18 19 17 16 17 17 16 17 16 15 13 9 9 12 19 21 18 18 21 18 13 7 0 3 10 15 19 26 25 17 14 16 17 18 22 28 30 26 21 21 24 23 24 26 21 12 11 11 16 37 54 56 47 29 36 57 62 57 64 68 65 80
21 19 19 18 17 18 18 18 18 16 14 12 11 13 15 16 16 15 17 21 19 15 7 359 2 11 17 20 24 23 18 15 14 15 17 20 28 33 25 20 24 27 25 24 26 23 15 11 12 22 46 60 55 41 30 40 58 68 66 67 73 77 87
21 19 21 20 18 18 19 19 19 16 14 13 15 18 16 14 15 16 18 20 18 15 8 359 2 12 18 21 24 22 17 15 14 14 15 16 22 30 25 17 19 25 26 27 26 21 17 16 17 21 37 61 57 38 33 46 60 69 71 71 78 84 91
20 19 23 23 20 20 20 20 19 16 14 16 19 18 15 15 17 17 18 18 15 14 9 0 2 12 18 21 23 21 15 13 13 14 16 13 14 24 28 18 15 20 25 28 27 20 14 16 20 22 24 38 58 52 43 47 60 70 72 76 84 89 98
20 20 23 24 23 21 20 19 20 16 15 19 20 18 16 17 18 18 17 16 14 14 10 2 2 10 17 20 21 19 14 12 13 15 16 11 11 19 27 23 18 19 25 30 28 21 14 14 18 20 20 25 40 49 45 41 50 66 72 81 86 91 103
19 22 23 23 25 24 20 19 18 16 17 19 18 18 19 18 18 18 16 15 15 13 8 2 2 8 15 20 20 18 16 14 12 13 14 9 10 16 24 26 24 23 29 35 32 23 17 13 11 11 14 20 25 30 36 47 60 61 65 90 89 90 104
20 25 24 21 26 28 23 20 18 16 17 18 17 18 19 18 17 17 15 15 14 11 7 3 2 7 15 19 19 18 18 15 11 10 11 10 11 14 19 23 24 28 38 40 33 25 19 14 10 8 11 18 16 14 25 44 53 56 76 92 90 93 104
21 26 26 23 26 29 26 22 19 17 16 17 17 18 18 17 16 14 13 14 14 13 9 3 2 8 16 19 18 16 17 16 13 12 13 14 14 14 16 21 24 30 42 40 30 24 20 15 14 13 18 23 11 359 15 33 22 26 92 109 105 108 117
24 27 29 27 27 29 30 26 20 18 17 17 19 18 16 16 15 11 12 14 12 11 10 3 2 8 14 16 16 15 16 17 19 20 18 15 15 16 19 26 30 31 39 40 28 21 17 14 16 21 27 36 31 7 10 16 357 351 18 117 152 168 180
28 30 34 33 30 31 33 29 23 20 19 19 20 18 14 14 14 12 11 11 10 9 8 5 4 7 11 14 14 14 17 20 24 26 22 15 15 17 22 32 35 33 34 35 22 14 15 19 26 33 34 34 38 36 25 7 353 353 348 328 293 227 205
31 33 37 37 33 32 35 33 26 23 22 22 21 18 13 12 13 13 10 9 8 8 7 6 7 10 14 16 13 13 18 23 25 26 25 19 16 17 24 33 37 34 30 25 16 7 11 16 17 22 28 24 20 20 10 355 343 313 304 307 311 319 122